Weather History for Pawtucket, RI

Change the Weather History Date:

Tuesday, November 19, 2013

  Actual Average Record
Temperature  
Mean Temperature 38 °F -  
Max Temperature 46 °F 46 °F 62 °F (2004)
Min Temperature 30 °F 31 °F 19 °F (2005)
Degree Days  
Heating Degree Days 27    
Moisture  
Dew Point 19 °F    
Average Humidity 45    
Maximum Humidity 51    
Minimum Humidity 36    
Precipitation  
Precipitation 0.00 in - - ()
Sea Level Pressure  
Sea Level Pressure 29.97 in    
Wind  
Wind Speed 13 mph (NW)    
Max Wind Speed 20 mph    
Max Gust Speed 32 mph    
Visibility 10 miles    
Events      
Averages and records for this station are not official NWS values.
T = Trace of Precipitation, MM = Missing Value Source: NWS Daily Summary

Daily Weather History Graph

Daily Weather History Graph

Search for Another Location

Airport:

Trip Planner

Search our weather history database for the weather conditions in past years. The results will help you decide how hot, cold, wet, or windy it might be!

Date:

Astronomy

Nov. 19, 2013 Rise Set
Actual Time 6:40 AM EST 4:21 PM EST
Civil Twilight 6:10 AM EST 4:51 PM EST
Nautical Twilight 5:36 AM EST 5:25 PM EST
Astronomical Twilight 5:03 AM EST 5:59 PM EST
Moon 6:10 PM EST (11/19) 8:17 AM EST (11/19)
Length of Visible Light 10h 41m
Length of Day
9h 40m
Waning Gibbous, 96% of the Moon is Illuminated
Nov 19
Waning Gibbous
Nov 25
Last Quarter
Dec 2
New
Dec 9
First Quarter
Dec 17
Full

Hourly Weather History & Observations

Time (EST) Temp. Windchill Dew Point Humidity Pressure Visibility Wind Dir Wind Speed Gust Speed Precip Events Conditions
12:15 AM 46.4 °F 40.1 °F 26.6 °F 46% 29.69 in 10.0 mi WNW 15.0 mph 25.3 mph N/A   Clear
12:35 AM 46.4 °F 40.7 °F 26.6 °F 46% 29.69 in 10.0 mi WNW 12.7 mph 19.6 mph N/A   Clear
12:55 AM 46.4 °F 40.4 °F 26.6 °F 46% 29.70 in 10.0 mi West 13.8 mph 18.4 mph N/A   Clear
1:15 AM 44.6 °F 38.8 °F 26.6 °F 49% 29.70 in 10.0 mi WNW 11.5 mph 19.6 mph N/A   Clear
1:35 AM 44.6 °F 39.7 °F 26.6 °F 49% 29.71 in 10.0 mi WNW 9.2 mph 18.4 mph N/A   Clear
1:55 AM 44.6 °F 38.8 °F 24.8 °F 46% 29.72 in 10.0 mi WNW 11.5 mph 18.4 mph N/A   Clear
2:15 AM 42.8 °F 36.6 °F 24.8 °F 49% 29.73 in 10.0 mi WNW 11.5 mph 18.4 mph N/A   Clear
2:35 AM 42.8 °F 35.4 °F 24.8 °F 49% 29.73 in 10.0 mi WNW 15.0 mph 18.4 mph N/A   Clear
2:55 AM 42.8 °F 35.8 °F 24.8 °F 49% 29.74 in 10.0 mi West 13.8 mph 24.2 mph N/A   Clear
3:15 AM 41.0 °F 33.1 °F 23.0 °F 49% 29.75 in 10.0 mi WNW 15.0 mph 18.4 mph N/A   Clear
3:35 AM 41.0 °F 33.9 °F 23.0 °F 49% 29.76 in 10.0 mi WNW 12.7 mph 20.7 mph N/A   Clear
3:55 AM 41.0 °F 34.7 °F 21.2 °F 45% 29.76 in 10.0 mi WNW 10.4 mph 23.0 mph N/A   Clear
4:15 AM 39.2 °F 31.6 °F 19.4 °F 45% 29.77 in 10.0 mi WNW 12.7 mph 20.7 mph N/A   Clear
4:35 AM 39.2 °F 31.6 °F 19.4 °F 45% 29.77 in 10.0 mi WNW 12.7 mph 18.4 mph N/A   Clear
4:55 AM 39.2 °F 32.0 °F 19.4 °F 45% 29.78 in 10.0 mi WNW 11.5 mph - N/A   Clear
5:15 AM 39.2 °F 32.0 °F 19.4 °F 45% 29.78 in 10.0 mi WNW 11.5 mph - N/A   Clear
5:35 AM 39.2 °F 31.2 °F 19.4 °F 45% 29.79 in 10.0 mi West 13.8 mph 21.9 mph N/A   Clear
5:55 AM 37.4 °F 28.9 °F 19.4 °F 48% 29.81 in 10.0 mi West 13.8 mph 18.4 mph N/A   Partly Cloudy
6:15 AM 39.2 °F 31.2 °F 19.4 °F 45% 29.81 in 10.0 mi West 13.8 mph 24.2 mph N/A   Mostly Cloudy
6:35 AM 39.2 °F 31.2 °F 19.4 °F 45% 29.83 in 10.0 mi West 13.8 mph 21.9 mph N/A   Scattered Clouds
6:55 AM 39.2 °F 33.0 °F 19.4 °F 45% 29.84 in 10.0 mi West 9.2 mph 19.6 mph N/A   Mostly Cloudy
7:15 AM 39.2 °F 33.0 °F 19.4 °F 45% 29.85 in 10.0 mi WNW 9.2 mph 16.1 mph N/A   Overcast
7:35 AM 39.2 °F 32.0 °F 21.2 °F 49% 29.85 in 10.0 mi West 11.5 mph 17.3 mph N/A   Overcast
7:55 AM 39.2 °F 32.5 °F 21.2 °F 49% 29.86 in 10.0 mi West 10.4 mph 20.7 mph N/A   Overcast
8:15 AM 41.0 °F 34.7 °F 21.2 °F 45% 29.88 in 10.0 mi NW 10.4 mph 20.7 mph N/A   Overcast
8:35 AM 41.0 °F 34.3 °F 21.2 °F 45% 29.89 in 10.0 mi NW 11.5 mph 20.7 mph N/A   Overcast
8:55 AM 39.2 °F 33.0 °F 21.2 °F 49% 29.90 in 10.0 mi NW 9.2 mph 21.9 mph N/A   Overcast
9:15 AM 42.8 °F 36.2 °F 21.2 °F 42% 29.90 in 10.0 mi WNW 12.7 mph 28.8 mph N/A   Overcast
9:35 AM 42.8 °F 36.2 °F 21.2 °F 42% 29.91 in 10.0 mi WNW 12.7 mph - N/A   Overcast
9:55 AM 41.0 °F 31.9 °F 21.2 °F 45% 29.92 in 10.0 mi NW 19.6 mph 32.2 mph N/A   Scattered Clouds
10:15 AM 41.0 °F 33.1 °F 19.4 °F 42% 29.93 in 10.0 mi NW 15.0 mph 19.6 mph N/A   Mostly Cloudy
10:35 AM 41.0 °F 32.5 °F 19.4 °F 42% 29.94 in 10.0 mi NW 17.3 mph 25.3 mph N/A   Mostly Cloudy
10:55 AM 42.8 °F 34.8 °F 19.4 °F 39% 29.94 in 10.0 mi West 17.3 mph 25.3 mph N/A   Scattered Clouds
11:15 AM 42.8 °F 34.8 °F 19.4 °F 39% 29.94 in 10.0 mi WNW 17.3 mph 26.5 mph N/A   Clear
11:35 AM 42.8 °F 35.4 °F 19.4 °F 39% 29.94 in 10.0 mi NW 15.0 mph 20.7 mph N/A   Clear
11:55 AM 42.8 °F 34.5 °F 17.6 °F 36% 29.94 in 10.0 mi WNW 18.4 mph 24.2 mph N/A   Clear
12:15 PM 42.8 °F 35.4 °F 17.6 °F 36% 29.96 in 10.0 mi WNW 15.0 mph 23.0 mph N/A   Clear
12:35 PM 42.8 °F 35.8 °F 17.6 °F 36% 29.96 in 10.0 mi NW 13.8 mph 20.7 mph N/A   Clear
12:55 PM 42.8 °F 34.8 °F 17.6 °F 36% 29.97 in 10.0 mi WNW 17.3 mph 25.3 mph N/A   Clear
1:15 PM 42.8 °F 34.5 °F 17.6 °F 36% 29.97 in 10.0 mi NNW 18.4 mph 25.3 mph N/A   Clear
1:35 PM 42.8 °F 35.4 °F 17.6 °F 36% 29.97 in 10.0 mi WNW 15.0 mph 23.0 mph N/A   Clear
1:55 PM 42.8 °F 38.0 °F 17.6 °F 36% 29.98 in 10.0 mi WNW 8.1 mph 24.2 mph N/A   Clear
2:15 PM 42.8 °F 34.5 °F 17.6 °F 36% 29.99 in 10.0 mi WNW 18.4 mph 24.2 mph N/A   Clear
2:35 PM 42.8 °F 35.4 °F 17.6 °F 36% 30.01 in 10.0 mi NW 15.0 mph 20.7 mph N/A   Clear
2:55 PM 41.0 °F 33.1 °F 17.6 °F 39% 30.02 in 10.0 mi NW 15.0 mph 23.0 mph N/A   Clear
3:15 PM 41.0 °F 32.8 °F 17.6 °F 39% 30.03 in 10.0 mi WNW 16.1 mph 19.6 mph N/A   Clear
3:35 PM 39.2 °F 30.8 °F 17.6 °F 42% 30.04 in 10.0 mi NW 15.0 mph 24.2 mph N/A   Clear
3:55 PM 39.2 °F 31.6 °F 15.8 °F 39% 30.05 in 10.0 mi WNW 12.7 mph 24.2 mph N/A   Clear
4:15 PM 37.4 °F 28.5 °F 15.8 °F 41% 30.06 in 10.0 mi NW 15.0 mph 21.9 mph N/A   Clear
4:35 PM 37.4 °F 32.1 °F 15.8 °F 41% 30.08 in 10.0 mi WNW 6.9 mph - N/A   Clear
4:55 PM 37.4 °F 31.4 °F 15.8 °F 41% 30.09 in 10.0 mi NW 8.1 mph - N/A   Clear
5:15 PM 37.4 °F 32.1 °F 15.8 °F 41% 30.11 in 10.0 mi NW 6.9 mph - N/A   Clear
5:35 PM 35.6 °F 30.7 °F 15.8 °F 44% 30.12 in 10.0 mi WNW 5.8 mph - N/A   Clear
5:55 PM 35.6 °F 28.0 °F 15.8 °F 44% 30.13 in 10.0 mi NW 10.4 mph 16.1 mph N/A   Clear
6:15 PM 35.6 °F 27.1 °F 15.8 °F 44% 30.13 in 10.0 mi WNW 12.7 mph 17.3 mph N/A   Clear
6:35 PM 35.6 °F 28.0 °F 15.8 °F 44% 30.15 in 10.0 mi NW 10.4 mph 18.4 mph N/A   Clear
6:55 PM 35.6 °F 28.0 °F 15.8 °F 44% 30.16 in 10.0 mi NW 10.4 mph - N/A   Clear
7:15 PM 35.6 °F 28.6 °F 15.8 °F 44% 30.17 in 10.0 mi NNW 9.2 mph 19.6 mph N/A   Clear
7:35 PM 33.8 °F 26.4 °F 15.8 °F 48% 30.18 in 10.0 mi NW 9.2 mph - N/A   Clear
7:55 PM 33.8 °F 24.8 °F 15.8 °F 48% 30.19 in 10.0 mi NW 12.7 mph 18.4 mph N/A   Clear
8:15 PM 33.8 °F 24.8 °F 15.8 °F 48% 30.19 in 10.0 mi NW 12.7 mph 18.4 mph N/A   Clear
8:35 PM 33.8 °F 25.8 °F 15.8 °F 48% 30.20 in 10.0 mi NNW 10.4 mph - N/A   Clear
8:55 PM 32.0 °F 22.5 °F 15.8 °F 51% 30.21 in 10.0 mi NW 12.7 mph 18.4 mph N/A   Clear
9:15 PM 32.0 °F 22.1 °F 15.8 °F 51% 30.21 in 10.0 mi NW 13.8 mph 17.3 mph N/A   Clear
9:35 PM 32.0 °F 22.5 °F 15.8 °F 51% 30.22 in 10.0 mi NNW 12.7 mph 20.7 mph N/A   Clear
9:55 PM 30.2 °F 18.1 °F 14.0 °F 51% 30.22 in 10.0 mi NW 18.4 mph 25.3 mph N/A   Clear
10:15 PM 30.2 °F 18.5 °F 14.0 °F 51% 30.23 in 10.0 mi NW 17.3 mph 24.2 mph N/A   Clear
10:35 PM 30.2 °F 18.9 °F 14.0 °F 51% 30.23 in 10.0 mi NW 16.1 mph 23.0 mph N/A   Clear
10:55 PM 30.2 °F 19.3 °F 14.0 °F 51% 30.25 in 10.0 mi NNW 15.0 mph 21.9 mph N/A   Clear
11:15 PM 30.2 °F 20.2 °F 14.0 °F 51% 30.25 in 10.0 mi NNW 12.7 mph 18.4 mph N/A   Clear
11:35 PM 30.2 °F 18.9 °F 14.0 °F 51% 30.25 in 10.0 mi NNW 16.1 mph 26.5 mph N/A   Clear
11:55 PM 30.2 °F 19.3 °F 14.0 °F 51% 30.26 in 10.0 mi NNW 15.0 mph 21.9 mph N/A   Clear